Alicante, Spain

12:42 PM CEST on June 20, 2018 (GMT +0200)
Alicante

Weather History for LEAL - December, 2017

Change the Weather History Date:

Thursday, December 7, 2017

  Actual Average Record
Temperature  
Mean Temperature 52 °F -  
Max Temperature 62 °F 60 °F 75 °F (2007)
Min Temperature 41 °F 44 °F 38 °F (2013)
Degree Days  
Heating Degree Days 14    
Growing Degree Days 2 (Base 50)    
Moisture  
Dew Point 42 °F    
Average Humidity 69    
Maximum Humidity 87    
Minimum Humidity 37    
Precipitation  
Precipitation 0.00 in - - ()
Sea Level Pressure  
Sea Level Pressure 30.44 in    
Wind  
Wind Speed 5 mph ()    
Max Wind Speed 10 mph    
Max Gust Speed -    
Visibility 8.6 miles    
Events      
Averages and records for this station are not official NWS values.
T = Trace of Precipitation, MM = Missing Value Source: Averaged Metar Reports

Daily Weather History Graph

Daily Weather History Graph

Search for Another Location

Airport or City:

Astronomy

Dec. 07, 2017 Rise Set
Actual Time 8:05 AM CET 5:41 PM CET
Civil Twilight 7:36 AM CET 6:11 PM CET
Nautical Twilight 7:03 AM CET 6:44 PM CET
Astronomical Twilight 6:31 AM CET 7:16 PM CET
Moon 10:10 PM CET (12/7) 11:34 AM CET (12/7)
Length of Visible Light 10h 34m
Length of Day
9h 36m
Waning Gibbous, 80% of the Moon is Illuminated
Dec 7
Waning Gibbous
Dec 10
Last Quarter
Dec 18
New
Dec 26
First Quarter
Jan 2
Full

Hourly Weather History & Observations

Time (CET) Temp. Windchill Dew Point Humidity Pressure Visibility Wind Dir Wind Speed Gust Speed Precip Events Conditions
12:00 AM 49 °F - 42 °F 70% 30.50 in - WNW 5.8 mph - -  
12:00 AM 48.2 °F - 42.8 °F 82% 30.48 in 6.2 mi WNW 4.6 mph - N/A   Partly Cloudy
1:00 AM 48 °F - 42 °F 72% 30.49 in 19 mi WNW 6.9 mph - -   Partly Cloudy
1:00 AM 48.2 °F - 42.8 °F 82% 30.48 in 6.2 mi WNW 6.9 mph - N/A   Partly Cloudy
1:30 AM 50.0 °F - 42.8 °F 76% 30.48 in 6.2 mi NW 8.1 mph - N/A   Partly Cloudy
2:00 AM 47 °F - 41 °F 74% 30.47 in - NW 8.1 mph - -  
2:00 AM 50.0 °F - 42.8 °F 76% 30.45 in 6.2 mi NW 8.1 mph - N/A   Partly Cloudy
2:30 AM 50.0 °F - 42.8 °F 76% 30.45 in 6.2 mi NW 9.2 mph - N/A   Partly Cloudy
3:00 AM 46 °F - 41 °F 77% 30.48 in - NW 6.9 mph - -  
3:00 AM 50.0 °F - 42.8 °F 76% 30.45 in 6.2 mi NW 6.9 mph - N/A   Partly Cloudy
3:30 AM 48.2 °F - 42.8 °F 82% 30.45 in 6.2 mi NW 6.9 mph - N/A   Partly Cloudy
4:00 AM 47 °F - 42 °F 75% 30.47 in 19 mi NW 2.3 mph - -   Scattered Clouds
4:00 AM 48.2 °F - 42.8 °F 82% 30.45 in 6.2 mi Variable 2.3 mph - N/A   Partly Cloudy
4:30 AM 48.2 °F - 42.8 °F 82% 30.45 in 6.2 mi Variable 1.2 mph - N/A   Partly Cloudy
5:00 AM 47 °F - 41 °F 72% 30.47 in - NW 2.3 mph - -  
5:00 AM 48.2 °F - 42.8 °F 82% 30.45 in 6.2 mi Variable 1.2 mph - N/A   Partly Cloudy
5:30 AM 48.2 °F - 41.0 °F 76% 30.45 in 6.2 mi NNW 3.5 mph - N/A   Partly Cloudy
6:00 AM 44 °F - 40 °F 79% 30.46 in - WSW 3.5 mph - -  
6:00 AM 44.6 °F - 37.4 °F 76% 30.45 in 6.2 mi Variable 2.3 mph - N/A   Partly Cloudy
6:30 AM 42.8 °F 40.1 °F 39.2 °F 87% 30.45 in 6.2 mi SW 4.6 mph - N/A   Partly Cloudy
7:00 AM 44 °F - 39 °F 78% 30.45 in 19 mi West 4.6 mph - -   Scattered Clouds
7:00 AM 41.0 °F 38.0 °F 37.4 °F 87% 30.45 in 6.2 mi WSW 4.6 mph - N/A   Partly Cloudy
7:30 AM 46.4 °F 41.9 °F 41.0 °F 81% 30.45 in 6.2 mi WNW 9.2 mph - N/A   Partly Cloudy
8:00 AM 45 °F - 39 °F 73% 30.46 in - NW 10.4 mph - -  
8:00 AM 46.4 °F 41.5 °F 41.0 °F 81% 30.45 in 6.2 mi NW 10.4 mph - N/A   Partly Cloudy
8:30 AM 42.8 °F - 39.2 °F 87% 30.45 in 6.2 mi Variable 2.3 mph - N/A   Partly Cloudy
9:00 AM 45 °F - 39 °F 73% 30.47 in - West 2.3 mph - -  
9:00 AM 44.6 °F - 41.0 °F 87% 30.45 in 6.2 mi Variable 1.2 mph - N/A   Scattered Clouds
9:30 AM 44.6 °F 42.2 °F 39.2 °F 81% 30.45 in 6.2 mi SSW 4.6 mph - N/A   Partly Cloudy
10:00 AM 51 °F - 41 °F 59% 30.48 in 6 mi SW 5.8 mph - -   Scattered Clouds
10:00 AM 50.0 °F - 42.8 °F 76% 30.48 in 6.2 mi SW 4.6 mph - N/A   Partly Cloudy
10:30 AM 53.6 °F - 42.8 °F 67% 30.48 in 6.2 mi SW 4.6 mph - N/A   Partly Cloudy
11:00 AM 57.2 °F - 44.6 °F 63% 30.48 in 6.2 mi West 5.8 mph - N/A   Partly Cloudy
11:30 AM 59.0 °F - 44.6 °F 59% 30.48 in 6.2 mi West 6.9 mph - N/A   Partly Cloudy
12:00 PM 60 °F - 44 °F 44% 30.48 in - West 8.1 mph - -  
12:00 PM 59.0 °F - 44.6 °F 59% 30.48 in 6.2 mi West 6.9 mph - N/A   Partly Cloudy
12:30 PM 60.8 °F - 44.6 °F 55% 30.45 in 6.2 mi West 6.9 mph - N/A   Partly Cloudy
1:00 PM 61 °F - 43 °F 41% 30.45 in 19 mi West 9.2 mph - -   Clear
1:00 PM 60.8 °F - 42.8 °F 52% 30.45 in - West 9.2 mph - N/A   Clear
1:30 PM 60.8 °F - 42.8 °F 52% 30.42 in - WSW 6.9 mph - N/A   Clear
2:00 PM 62 °F - 42 °F 37% 30.42 in - SSW 6.9 mph - -  
2:00 PM 60.8 °F - 42.8 °F 52% 30.42 in - Variable 6.9 mph - N/A   Clear
2:30 PM 60.8 °F - 42.8 °F 52% 30.42 in - WSW 5.8 mph - N/A   Clear
3:00 PM 62 °F - 42 °F 37% 30.41 in - SW 6.9 mph - -  
3:00 PM 60.8 °F - 42.8 °F 52% 30.39 in - WSW 5.8 mph - N/A   Clear
3:30 PM 62.6 °F - 42.8 °F 48% 30.39 in - SSW 6.9 mph - N/A   Clear
4:00 PM 62 °F - 43 °F 39% 30.40 in 19 mi SSW 6.9 mph - -   Clear
4:00 PM 60.8 °F - 42.8 °F 52% 30.39 in - SSW 5.8 mph - N/A   Clear
4:30 PM 60.8 °F - 42.8 °F 52% 30.39 in - SW 5.8 mph - N/A   Clear
5:00 PM 60.8 °F - 44.6 °F 55% 30.39 in - SW 4.6 mph - N/A   Clear
5:30 PM 59.0 °F - 42.8 °F 55% 30.39 in - SW 3.5 mph - N/A   Clear
6:00 PM 57.2 °F - 42.8 °F 59% 30.39 in - Variable 2.3 mph - N/A   Clear
6:30 PM 53.6 °F - 42.8 °F 67% 30.39 in - SW 3.5 mph - N/A   Clear
7:00 PM 53 °F - 42 °F 57% 30.40 in 16 mi SW 4.6 mph - -   Mostly Cloudy
7:00 PM 51.8 °F - 44.6 °F 76% 30.39 in - WSW 4.6 mph - N/A   Clear
7:30 PM 50.0 °F - 42.8 °F 76% 30.39 in - WSW 4.6 mph - N/A   Clear
8:00 PM 50 °F - 42 °F 67% 30.41 in - West 4.6 mph - -  
8:00 PM 50.0 °F - 44.6 °F 82% 30.39 in - West 4.6 mph - N/A   Clear
8:30 PM 48.2 °F - 44.6 °F 87% 30.39 in - West 5.8 mph - N/A   Clear
9:00 PM 48.2 °F - 42.8 °F 82% 30.39 in - West 5.8 mph - N/A   Clear
9:30 PM 48.2 °F - 42.8 °F 82% 30.39 in - West 4.6 mph - N/A   Clear
10:00 PM 48 °F - 42 °F 75% 30.41 in 12 mi WSW 3.5 mph - -   Scattered Clouds
10:30 PM 46.4 °F - 41.0 °F 81% 30.39 in - WSW 2.3 mph - N/A   Clear
11:00 PM 47 °F - 41 °F 74% 30.40 in - West 6.9 mph - -  
11:00 PM 46.4 °F 42.9 °F 42.8 °F 87% 30.39 in - West 6.9 mph - N/A   Clear
11:30 PM 46.4 °F 44.3 °F 42.8 °F 87% 30.39 in - West 4.6 mph - N/A   Clear